Private Wetterstation Wechselburg
Wetterdaten: Samstag, 08.02.2014
Datum Zeit Temp. +2m Bodentemp. Temp.+5cm Temp. Wind Windchill X Diff Temp. Feuchte +2m Feuchte +5cm Sonnenschein Luftdruck Regen Wind Richtung Richtung Sonnenschein UV Taupunkt Windchill Windben
08.02.2014 00:00 6,8 C 12,9 C 6,0 C 6,3 C 4,8 C 0,0 C 68 % 73 % 0 % 1006,9 hPa 0,0 l/m 7,7 km/h (2 Bft) W-SW 247 0 min 0,0 UV-I 1,3 C 3,0 C 6,4 km/h (2 Bft)
08.02.2014 00:05 6,7 C 12,9 C 5,9 C 6,1 C 4,8 C 0,0 C 68 % 73 % 0 % 1006,9 hPa 0,0 l/m 7,9 km/h (2 Bft) W-SW 247 0 min 0,0 UV-I 1,2 C 2,9 C 7,4 km/h (2 Bft)
08.02.2014 00:10 6,5 C 12,9 C 5,8 C 6,1 C 4,6 C 0,0 C 68 % 74 % 0 % 1007,0 hPa 0,0 l/m 8,0 km/h (2 Bft) S-SW 202 0 min 0,0 UV-I 1,0 C 2,7 C 8,5 km/h (2 Bft)
08.02.2014 00:15 6,4 C 12,9 C 5,6 C 5,8 C 4,6 C 0,0 C 68 % 74 % 0 % 1007,0 hPa 0,0 l/m 7,4 km/h (2 Bft) O 90 0 min 0,0 UV-I 0,9 C 2,8 C 12,6 km/h (3 Bft)
08.02.2014 00:20 6,4 C 12,9 C 5,5 C 5,8 C 4,7 C 0,0 C 68 % 74 % 0 % 1007,0 hPa 0,0 l/m 6,0 km/h (2 Bft) S 180 0 min 0,0 UV-I 0,9 C 3,4 C 11,6 km/h (2 Bft)
08.02.2014 00:25 6,2 C 12,9 C 5,3 C 5,6 C 4,3 C 0,0 C 68 % 74 % 0 % 1007,0 hPa 0,0 l/m 7,1 km/h (2 Bft) W 270 0 min 0,0 UV-I 0,7 C 2,6 C 11,1 km/h (2 Bft)
08.02.2014 00:30 6,1 C 12,9 C 5,3 C 5,6 C 3,9 C 0,0 C 68 % 74 % 0 % 1007,1 hPa 0,0 l/m 7,7 km/h (2 Bft) SW 225 0 min 0,0 UV-I 0,6 C 1,9 C 19,8 km/h (3 Bft)
08.02.2014 00:35 6,0 C 12,9 C 5,1 C 5,4 C 4,1 C 0,0 C 69 % 75 % 0 % 1007,1 hPa 0,0 l/m 6,8 km/h (2 Bft) O-NO 67 0 min 0,0 UV-I 0,8 C 2,4 C 5,0 km/h (1 Bft)
08.02.2014 00:41 6,0 C 12,9 C 5,0 C 5,4 C 4,1 C 0,0 C 69 % 75 % 0 % 1007,1 hPa 0,0 l/m 5,8 km/h (2 Bft) N 0 0 min 0,0 UV-I 0,8 C 2,8 C 6,3 km/h (2 Bft)
08.02.2014 01:00 5,8 C 12,9 C 5,0 C 5,1 C 3,7 C 0,0 C 69 % 75 % 0 % 1007,1 hPa 0,0 l/m 7,2 km/h (2 Bft) N 360 0 min 0,0 UV-I 0,6 C 1,8 C 6,4 km/h (2 Bft)
08.02.2014 01:01 5,8 C 12,9 C 5,0 C 5,1 C 3,7 C 0,0 C 69 % 75 % 0 % 1007,1 hPa 0,0 l/m 7,2 km/h (2 Bft) N 360 0 min 0,0 UV-I 0,6 C 1,8 C 6,4 km/h (2 Bft)
08.02.2014 01:05 5,9 C 12,9 C 4,9 C 5,3 C 3,5 C 0,0 C 69 % 75 % 0 % 1007,1 hPa 0,0 l/m 7,7 km/h (2 Bft) S-SW 202 0 min 0,0 UV-I 0,7 C 1,5 C 6,8 km/h (2 Bft)
08.02.2014 01:10 5,8 C 12,9 C 4,9 C 5,1 C 3,6 C 0,0 C 69 % 76 % 0 % 1007,8 hPa 0,0 l/m 7,6 km/h (2 Bft) O-NO 67 0 min 0,0 UV-I 0,6 C 1,6 C 7,2 km/h (2 Bft)
08.02.2014 01:15 5,7 C 12,9 C 4,8 C 5,0 C 3,6 C 0,0 C 69 % 76 % 0 % 1007,8 hPa 0,0 l/m 7,4 km/h (2 Bft) S-SO 157 0 min 0,0 UV-I 0,5 C 1,7 C 15,0 km/h (3 Bft)
08.02.2014 01:20 5,7 C 12,9 C 4,9 C 5,0 C 3,6 C 0,0 C 69 % 76 % 0 % 1007,8 hPa 0,0 l/m 7,1 km/h (2 Bft) S-SO 157 0 min 0,0 UV-I 0,5 C 1,8 C 4,2 km/h (1 Bft)
08.02.2014 01:25 5,6 C 12,9 C 4,7 C 5,0 C 3,8 C 0,0 C 69 % 75 % 0 % 1007,8 hPa 0,0 l/m 6,0 km/h (2 Bft) O 90 0 min 0,0 UV-I 0,4 C 2,3 C 6,8 km/h (2 Bft)
08.02.2014 01:30 5,6 C 12,9 C 4,7 C 5,3 C 4,6 C 0,0 C 69 % 75 % 0 % 1008,1 hPa 0,0 l/m 3,5 km/h (1 Bft) S 180 0 min 0,0 UV-I 0,4 C 4,6 C 2,7 km/h (1 Bft)
08.02.2014 01:35 5,6 C 12,9 C 4,6 C 5,3 C 4,6 C 0,0 C 69 % 75 % 0 % 1008,1 hPa 0,0 l/m 3,2 km/h (1 Bft) S 180 0 min 0,0 UV-I 0,4 C 4,6 C 6,4 km/h (2 Bft)
08.02.2014 01:40 5,5 C 12,8 C 4,7 C 5,1 C 4,2 C 0,0 C 69 % 76 % 0 % 1008,1 hPa 0,0 l/m 3,9 km/h (1 Bft) S 180 0 min 0,0 UV-I 0,3 C 4,2 C 6,1 km/h (2 Bft)
08.02.2014 01:45 5,5 C 12,8 C 4,7 C 5,0 C 3,9 C 0,0 C 69 % 76 % 0 % 1008,1 hPa 0,0 l/m 4,7 km/h (1 Bft) O-SO 112 0 min 0,0 UV-I 0,3 C 3,0 C 4,8 km/h (1 Bft)
08.02.2014 01:50 5,5 C 12,8 C 4,5 C 4,9 C 3,8 C 0,0 C 69 % 76 % 0 % 1008,2 hPa 0,0 l/m 4,7 km/h (1 Bft) SO 135 0 min 0,0 UV-I 0,3 C 2,8 C 4,0 km/h (1 Bft)
08.02.2014 01:55 5,4 C 12,8 C 4,5 C 4,9 C 3,8 C 0,0 C 69 % 76 % 0 % 1008,2 hPa 0,0 l/m 4,3 km/h (1 Bft) SW 225 0 min 0,0 UV-I 0,2 C 3,8 C 5,8 km/h (2 Bft)
08.02.2014 02:00 5,4 C 12,8 C 4,3 C 4,8 C 3,5 C 0,0 C 69 % 76 % 0 % 1008,2 hPa 0,0 l/m 4,7 km/h (1 Bft) S 180 0 min 0,0 UV-I 0,2 C 2,5 C 6,9 km/h (2 Bft)
08.02.2014 02:05 5,3 C 12,8 C 4,2 C 4,7 C 3,4 C 0,0 C 70 % 76 % 0 % 1008,2 hPa 0,0 l/m 4,5 km/h (1 Bft) SW 225 0 min 0,0 UV-I 0,3 C 3,4 C 3,5 km/h (1 Bft)
08.02.2014 02:10 5,2 C 12,8 C 4,1 C 4,8 C 3,9 C 0,0 C 70 % 76 % 0 % 1008,2 hPa 0,0 l/m 3,2 km/h (1 Bft) SO 135 0 min 0,0 UV-I 0,2 C 3,9 C 6,3 km/h (2 Bft)
08.02.2014 02:15 5,1 C 12,8 C 4,1 C 4,6 C 3,6 C 0,0 C 70 % 77 % 0 % 1008,2 hPa 0,0 l/m 3,7 km/h (1 Bft) S 180 0 min 0,0 UV-I 0,1 C 3,6 C 7,9 km/h (2 Bft)
08.02.2014 02:20 5,1 C 12,8 C 4,0 C 4,3 C 2,7 C 0,0 C 71 % 77 % 0 % 1008,2 hPa 0,0 l/m 5,6 km/h (1 Bft) SO 135 0 min 0,0 UV-I 0,3 C 1,2 C 8,4 km/h (2 Bft)
08.02.2014 02:25 5,1 C 12,8 C 4,0 C 4,3 C 2,6 C 0,0 C 71 % 77 % 0 % 1008,2 hPa 0,0 l/m 5,8 km/h (2 Bft) SO 135 0 min 0,0 UV-I 0,3 C 1,0 C 5,3 km/h (1 Bft)
08.02.2014 02:30 4,9 C 12,8 C 3,8 C 4,2 C 2,8 C 0,0 C 71 % 78 % 0 % 1008,2 hPa 0,0 l/m 5,3 km/h (1 Bft) S 180 0 min 0,0 UV-I 0,1 C 1,5 C 6,0 km/h (2 Bft)
08.02.2014 02:35 4,8 C 12,8 C 3,9 C 4,2 C 3,1 C 0,0 C 71 % 78 % 0 % 1008,2 hPa 0,0 l/m 4,8 km/h (1 Bft) S 180 0 min 0,0 UV-I -0,0 C 2,0 C 4,0 km/h (1 Bft)
08.02.2014 02:40 4,8 C 12,8 C 4,1 C 4,4 C 3,6 C 0,0 C 71 % 78 % 0 % 1008,2 hPa 0,0 l/m 4,3 km/h (1 Bft) W 270 0 min 0,0 UV-I -0,0 C 3,6 C 3,4 km/h (1 Bft)
08.02.2014 02:45 4,8 C 12,8 C 4,1 C 4,5 C 3,9 C 0,0 C 71 % 78 % 0 % 1008,2 hPa 0,0 l/m 4,0 km/h (1 Bft) S 180 0 min 0,0 UV-I -0,0 C 3,9 C 4,7 km/h (1 Bft)
08.02.2014 02:50 4,9 C 12,8 C 4,2 C 4,7 C 4,3 C 0,0 C 71 % 78 % 0 % 1008,2 hPa 0,0 l/m 3,9 km/h (1 Bft) SO 135 0 min 0,0 UV-I 0,1 C 4,3 C 4,2 km/h (1 Bft)
08.02.2014 02:55 4,9 C 12,8 C 4,3 C 4,8 C 4,5 C 0,0 C 71 % 78 % 0 % 1008,2 hPa 0,0 l/m 4,0 km/h (1 Bft) S 180 0 min 0,0 UV-I 0,1 C 4,5 C 7,1 km/h (2 Bft)
08.02.2014 03:00 4,9 C 12,7 C 4,3 C 4,7 C 4,4 C 0,0 C 71 % 77 % 0 % 1008,2 hPa 0,0 l/m 4,2 km/h (1 Bft) S 180 0 min 0,0 UV-I 0,1 C 4,4 C 4,8 km/h (1 Bft)
08.02.2014 03:05 5,0 C 12,7 C 4,2 C 4,7 C 4,2 C 0,0 C 71 % 77 % 0 % 1008,2 hPa 0,0 l/m 4,3 km/h (1 Bft) S-SO 157 0 min 0,0 UV-I 0,2 C 4,2 C 6,4 km/h (2 Bft)
08.02.2014 03:10 4,9 C 12,7 C 4,1 C 4,5 C 3,6 C 0,0 C 71 % 78 % 0 % 1008,2 hPa 0,0 l/m 4,2 km/h (1 Bft) S-SW 202 0 min 0,0 UV-I 0,1 C 3,6 C 5,5 km/h (1 Bft)
08.02.2014 03:15 4,9 C 12,7 C 4,0 C 4,4 C 3,3 C 0,0 C 71 % 78 % 0 % 1008,2 hPa 0,0 l/m 4,8 km/h (1 Bft) S 180 0 min 0,0 UV-I 0,1 C 2,2 C 7,9 km/h (2 Bft)
08.02.2014 03:20 5,1 C 12,7 C 4,0 C 4,4 C 2,9 C 0,0 C 71 % 78 % 0 % 1008,2 hPa 0,0 l/m 5,8 km/h (2 Bft) SO 135 0 min 0,0 UV-I 0,3 C 1,4 C 7,4 km/h (2 Bft)
08.02.2014 03:25 5,1 C 12,7 C 4,0 C 4,3 C 2,8 C 0,0 C 71 % 78 % 0 % 1008,2 hPa 0,0 l/m 6,1 km/h (2 Bft) S-SO 157 0 min 0,0 UV-I 0,3 C 1,2 C 5,5 km/h (1 Bft)
08.02.2014 03:30 5,1 C 12,7 C 4,0 C 4,5 C 3,2 C 0,0 C 71 % 78 % 0 % 1007,7 hPa 0,0 l/m 5,0 km/h (1 Bft) SO 135 0 min 0,0 UV-I 0,3 C 2,0 C 4,8 km/h (1 Bft)
08.02.2014 03:35 5,1 C 12,7 C 4,0 C 4,5 C 3,3 C 0,0 C 71 % 78 % 0 % 1007,7 hPa 0,0 l/m 4,5 km/h (1 Bft) S-SO 157 0 min 0,0 UV-I 0,3 C 3,3 C 8,0 km/h (2 Bft)
08.02.2014 03:40 5,0 C 12,7 C 3,9 C 4,4 C 3,2 C 0,0 C 71 % 78 % 0 % 1007,7 hPa 0,0 l/m 4,3 km/h (1 Bft) O-NO 67 0 min 0,0 UV-I 0,2 C 3,2 C 2,4 km/h (1 Bft)
08.02.2014 03:45 4,9 C 12,7 C 3,9 C 4,3 C 3,2 C 0,0 C 71 % 78 % 0 % 1007,7 hPa 0,0 l/m 4,2 km/h (1 Bft) SO 135 0 min 0,0 UV-I 0,1 C 3,2 C 6,9 km/h (2 Bft)
08.02.2014 03:50 4,9 C 12,7 C 3,9 C 4,2 C 2,9 C 0,0 C 71 % 78 % 0 % 1007,9 hPa 0,0 l/m 4,3 km/h (1 Bft) O-NO 67 0 min 0,0 UV-I 0,1 C 2,9 C 7,1 km/h (2 Bft)
08.02.2014 03:55 4,8 C 12,7 C 3,7 C 4,2 C 2,9 C 0,0 C 71 % 78 % 0 % 1007,9 hPa 0,0 l/m 4,5 km/h (1 Bft) S-SO 157 0 min 0,0 UV-I -0,0 C 2,9 C 6,6 km/h (2 Bft)
08.02.2014 04:00 4,9 C 12,7 C 3,7 C 4,2 C 2,8 C 0,0 C 71 % 78 % 0 % 1007,9 hPa 0,0 l/m 4,8 km/h (1 Bft) SO 135 0 min 0,0 UV-I 0,1 C 1,7 C 7,1 km/h (2 Bft)
08.02.2014 04:05 4,8 C 12,7 C 3,6 C 4,1 C 2,8 C 0,0 C 71 % 78 % 0 % 1007,9 hPa 0,0 l/m 4,8 km/h (1 Bft) SW 225 0 min 0,0 UV-I -0,0 C 1,7 C 6,3 km/h (2 Bft)
08.02.2014 04:10 4,6 C 12,6 C 3,7 C 4,0 C 2,8 C 0,0 C 72 % 78 % 0 % 1008,0 hPa 0,0 l/m 4,3 km/h (1 Bft) S 180 0 min 0,0 UV-I -0,0 C 2,8 C 7,7 km/h (2 Bft)
08.02.2014 04:15 4,7 C 12,6 C 3,7 C 3,9 C 2,4 C 0,0 C 72 % 79 % 0 % 1008,0 hPa 0,0 l/m 4,8 km/h (1 Bft) S 180 0 min 0,0 UV-I 0,1 C 1,2 C 3,4 km/h (1 Bft)
08.02.2014 04:20 4,5 C 12,6 C 3,5 C 3,8 C 2,3 C 0,0 C 72 % 79 % 0 % 1008,0 hPa 0,0 l/m 5,0 km/h (1 Bft) SO 135 0 min 0,0 UV-I -0,1 C 1,0 C 5,1 km/h (1 Bft)
08.02.2014 04:25 4,4 C 12,6 C 3,5 C 3,7 C 2,4 C 0,0 C 72 % 79 % 0 % 1008,0 hPa 0,0 l/m 4,7 km/h (1 Bft) SO 135 0 min 0,0 UV-I -0,2 C 1,3 C 5,1 km/h (1 Bft)
08.02.2014 04:30 4,4 C 12,6 C 3,3 C 3,7 C 2,2 C 0,0 C 73 % 79 % 0 % 1008,0 hPa 0,0 l/m 4,7 km/h (1 Bft) S-SW 202 0 min 0,0 UV-I -0,0 C 1,0 C 6,0 km/h (2 Bft)
08.02.2014 04:35 4,3 C 12,6 C 3,2 C 3,6 C 2,3 C 0,0 C 72 % 79 % 0 % 1008,0 hPa 0,0 l/m 4,3 km/h (1 Bft) SO 135 0 min 0,0 UV-I -0,3 C 2,3 C 4,5 km/h (1 Bft)
08.02.2014 04:40 4,2 C 12,6 C 3,1 C 3,6 C 2,3 C 0,0 C 72 % 79 % 0 % 1008,0 hPa 0,0 l/m 4,2 km/h (1 Bft) S 180 0 min 0,0 UV-I -0,4 C 2,3 C 7,7 km/h (2 Bft)
08.02.2014 04:45 4,2 C 12,6 C 3,1 C 3,6 C 2,3 C 0,0 C 72 % 79 % 0 % 1008,0 hPa 0,0 l/m 4,2 km/h (1 Bft) S 180 0 min 0,0 UV-I -0,4 C 2,3 C 6,6 km/h (2 Bft)
08.02.2014 04:50 4,3 C 12,6 C 3,1 C 3,6 C 2,2 C 0,0 C 73 % 79 % 0 % 1008,1 hPa 0,0 l/m 4,3 km/h (1 Bft) S-SO 157 0 min 0,0 UV-I -0,1 C 2,2 C 2,9 km/h (1 Bft)
08.02.2014 04:55 4,2 C 12,6 C 3,1 C 3,5 C 2,2 C 0,0 C 73 % 79 % 0 % 1008,1 hPa 0,0 l/m 4,2 km/h (1 Bft) S-SO 157 0 min 0,0 UV-I -0,2 C 2,2 C 5,8 km/h (2 Bft)
08.02.2014 05:00 4,0 C 12,6 C 3,0 C 3,4 C 2,1 C 0,0 C 73 % 80 % 0 % 1008,1 hPa 0,0 l/m 4,0 km/h (1 Bft) S 180 0 min 0,0 UV-I -0,4 C 2,1 C 4,8 km/h (1 Bft)
08.02.2014 05:05 4,1 C 12,6 C 3,0 C 3,4 C 2,1 C 0,0 C 73 % 80 % 0 % 1008,1 hPa 0,0 l/m 4,0 km/h (1 Bft) SO 135 0 min 0,0 UV-I -0,3 C 2,1 C 6,9 km/h (2 Bft)
08.02.2014 05:10 4,0 C 12,6 C 3,0 C 3,3 C 1,8 C 0,0 C 73 % 80 % 0 % 1008,0 hPa 0,0 l/m 4,7 km/h (1 Bft) S-SO 157 0 min 0,0 UV-I -0,4 C 0,6 C 8,0 km/h (2 Bft)
08.02.2014 05:15 4,1 C 12,6 C 3,1 C 3,3 C 1,8 C 0,0 C 73 % 80 % 0 % 1008,0 hPa 0,0 l/m 5,0 km/h (1 Bft) W-SW 247 0 min 0,0 UV-I -0,3 C 0,5 C 4,3 km/h (1 Bft)
08.02.2014 05:20 4,0 C 12,5 C 2,9 C 3,2 C 1,7 C 0,0 C 73 % 80 % 0 % 1008,0 hPa 0,0 l/m 5,0 km/h (1 Bft) S 180 0 min 0,0 UV-I -0,4 C 0,3 C 8,2 km/h (2 Bft)
08.02.2014 05:25 4,0 C 12,5 C 2,9 C 3,3 C 1,9 C 0,0 C 74 % 80 % 0 % 1008,0 hPa 0,0 l/m 4,5 km/h (1 Bft) SO 135 0 min 0,0 UV-I -0,2 C 1,9 C 5,8 km/h (2 Bft)
08.02.2014 05:30 3,9 C 12,5 C 2,8 C 3,3 C 2,0 C 0,0 C 74 % 80 % 0 % 1007,9 hPa 0,0 l/m 4,0 km/h (1 Bft) S 180 0 min 0,0 UV-I -0,3 C 2,0 C 3,2 km/h (1 Bft)
08.02.2014 05:35 3,9 C 12,5 C 2,7 C 3,3 C 2,2 C 0,0 C 74 % 80 % 0 % 1007,9 hPa 0,0 l/m 3,4 km/h (1 Bft) NW 315 0 min 0,0 UV-I -0,3 C 2,2 C 0,0 km/h (0 Bft)
08.02.2014 05:40 3,9 C 12,5 C 2,7 C 3,4 C 2,5 C 0,0 C 74 % 80 % 0 % 1007,9 hPa 0,0 l/m 2,1 km/h (1 Bft) S 180 0 min 0,0 UV-I -0,3 C 2,5 C 3,1 km/h (1 Bft)
08.02.2014 05:45 3,8 C 12,5 C 2,6 C 3,3 C 2,4 C 0,0 C 74 % 81 % 0 % 1007,9 hPa 0,0 l/m 2,3 km/h (1 Bft) S-SO 157 0 min 0,0 UV-I -0,4 C 2,4 C 3,1 km/h (1 Bft)
08.02.2014 05:50 3,8 C 12,5 C 2,5 C 3,3 C 2,4 C 0,0 C 74 % 81 % 0 % 1007,6 hPa 0,0 l/m 2,3 km/h (1 Bft) O-NO 67 0 min 0,0 UV-I -0,4 C 2,4 C 3,1 km/h (1 Bft)
08.02.2014 05:55 3,7 C 12,5 C 2,5 C 3,2 C 2,3 C 0,0 C 74 % 81 % 0 % 1007,6 hPa 0,0 l/m 1,9 km/h (1 Bft) S 180 0 min 0,0 UV-I -0,5 C 2,3 C 3,2 km/h (1 Bft)
08.02.2014 06:00 3,7 C 12,5 C 2,4 C 3,2 C 2,2 C 0,0 C 74 % 81 % 0 % 1007,6 hPa 0,0 l/m 2,1 km/h (1 Bft) S 180 0 min 0,0 UV-I -0,5 C 2,2 C 2,6 km/h (1 Bft)
08.02.2014 06:05 3,6 C 12,5 C 2,3 C 3,1 C 2,2 C 0,0 C 74 % 81 % 0 % 1007,6 hPa 0,0 l/m 1,8 km/h (1 Bft) N-NO 22 0 min 0,0 UV-I -0,6 C 2,2 C 0,0 km/h (0 Bft)
08.02.2014 06:10 3,6 C 12,5 C 2,3 C 3,1 C 2,0 C 0,0 C 75 % 81 % 0 % 1007,6 hPa 0,0 l/m 1,0 km/h (0 Bft) O-SO 112 0 min 0,0 UV-I -0,4 C 2,0 C 0,0 km/h (0 Bft)
08.02.2014 06:15 3,5 C 12,5 C 2,3 C 3,0 C 2,0 C 0,0 C 75 % 81 % 0 % 1007,6 hPa 0,0 l/m 1,0 km/h (0 Bft) S 180 0 min 0,0 UV-I -0,5 C 2,0 C 0,0 km/h (0 Bft)
08.02.2014 06:20 3,5 C 12,5 C 2,3 C 3,0 C 1,9 C 0,0 C 75 % 81 % 0 % 1007,6 hPa 0,0 l/m 1,0 km/h (0 Bft) W 270 0 min 0,0 UV-I -0,5 C 1,9 C 0,0 km/h (0 Bft)
08.02.2014 06:25 3,5 C 12,4 C 2,3 C 2,9 C 1,8 C 0,0 C 75 % 81 % 0 % 1007,6 hPa 0,0 l/m 0,5 km/h (0 Bft) O-NO 67 0 min 0,0 UV-I -0,5 C 1,8 C 0,0 km/h (0 Bft)
08.02.2014 06:30 3,3 C 12,4 C 2,3 C 2,8 C 1,8 C 0,0 C 75 % 81 % 0 % 1007,4 hPa 0,0 l/m 0,3 km/h (0 Bft) N-NO 22 0 min 0,0 UV-I -0,7 C 1,8 C 0,0 km/h (0 Bft)
08.02.2014 06:35 3,3 C 12,4 C 2,3 C 2,8 C 1,8 C 0,0 C 76 % 81 % 0 % 1007,4 hPa 0,0 l/m 0,5 km/h (0 Bft) O-NO 67 0 min 0,0 UV-I -0,5 C 1,8 C 2,7 km/h (1 Bft)
08.02.2014 06:40 3,3 C 12,4 C 2,1 C 2,8 C 1,8 C 0,0 C 76 % 81 % 0 % 1007,4 hPa 0,0 l/m 0,6 km/h (0 Bft) NW 315 0 min 0,0 UV-I -0,5 C 1,8 C 0,0 km/h (0 Bft)
08.02.2014 06:45 3,2 C 12,4 C 1,9 C 2,6 C 1,5 C 0,0 C 75 % 81 % 0 % 1007,4 hPa 0,0 l/m 0,3 km/h (0 Bft) S 180 0 min 0,0 UV-I -0,8 C 1,5 C 0,0 km/h (0 Bft)
08.02.2014 06:50 3,1 C 12,4 C 1,5 C 2,4 C 1,1 C 0,0 C 75 % 81 % 0 % 1007,2 hPa 0,0 l/m 0,0 km/h (0 Bft) SW 225 0 min 0,0 UV-I -0,9 C 1,1 C 0,0 km/h (0 Bft)
08.02.2014 06:55 2,8 C 12,4 C 1,3 C 2,2 C 1,0 C 0,0 C 75 % 81 % 0 % 1007,2 hPa 0,0 l/m 0,0 km/h (0 Bft) SW 225 0 min 0,0 UV-I -1,2 C 1,0 C 0,0 km/h (0 Bft)
08.02.2014 07:00 2,7 C 12,5 C 1,1 C 2,0 C 0,6 C 0,0 C 75 % 82 % 0 % 1007,2 hPa 0,0 l/m 0,0 km/h (0 Bft) N-NO 22 0 min 0,0 UV-I -1,3 C 0,6 C 0,0 km/h (0 Bft)
08.02.2014 07:05 2,4 C 12,6 C 0,8 C 1,8 C 0,5 C 0,0 C 76 % 82 % 0 % 1007,2 hPa 0,0 l/m 0,0 km/h (0 Bft) NO 45 0 min 0,0 UV-I -1,4 C 0,5 C 0,0 km/h (0 Bft)
08.02.2014 07:10 2,3 C 12,5 C 0,6 C 1,7 C 0,5 C 0,0 C 76 % 82 % 0 % 1006,8 hPa 0,0 l/m 0,0 km/h (0 Bft) NO 45 0 min 0,0 UV-I -1,5 C 0,5 C 0,0 km/h (0 Bft)
08.02.2014 07:15 2,0 C 12,5 C 0,7 C 1,5 C 0,4 C 0,0 C 76 % 82 % 0 % 1006,8 hPa 0,0 l/m 0,0 km/h (0 Bft) SW 225 0 min 0,0 UV-I -1,8 C 0,4 C 0,0 km/h (0 Bft)
08.02.2014 07:20 1,9 C 12,6 C 0,4 C 1,3 C 0,1 C 0,0 C 77 % 82 % 0 % 1006,8 hPa 0,0 l/m 0,2 km/h (0 Bft) O-NO 67 0 min 0,0 UV-I -1,7 C 0,1 C 0,0 km/h (0 Bft)
08.02.2014 07:25 1,6 C 12,6 C 0,2 C 1,1 C 0,0 C 0,0 C 77 % 83 % 0 % 1006,8 hPa 0,0 l/m 0,0 km/h (0 Bft) NO 45 0 min 0,0 UV-I -2,0 C 0,0 C 0,0 km/h (0 Bft)
08.02.2014 07:30 1,5 C 12,6 C 0,3 C 0,9 C -0,4 C 0,0 C 78 % 83 % 0 % 1006,8 hPa 0,0 l/m 0,0 km/h (0 Bft) W 270 0 min 0,0 UV-I -1,9 C -0,4 C 0,0 km/h (0 Bft)
08.02.2014 07:35 1,3 C 12,6 C 0,3 C 0,7 C -0,6 C 0,0 C 78 % 83 % 0 % 1006,8 hPa 0,0 l/m 0,0 km/h (0 Bft) W 270 0 min 0,0 UV-I -2,1 C -0,6 C 0,0 km/h (0 Bft)
08.02.2014 07:40 1,2 C 12,6 C 0,1 C 0,5 C -1,0 C 0,0 C 78 % 84 % 0 % 1006,8 hPa 0,0 l/m 0,0 km/h (0 Bft) W 270 0 min 0,0 UV-I -2,2 C -1,0 C 0,0 km/h (0 Bft)
08.02.2014 07:45 1,1 C 12,6 C -0,1 C 0,4 C -1,1 C 0,0 C 78 % 84 % 0 % 1006,8 hPa 0,0 l/m 0,0 km/h (0 Bft) W 270 0 min 0,0 UV-I -2,3 C -1,1 C 0,0 km/h (0 Bft)
08.02.2014 07:50 0,9 C 12,6 C -0,1 C 0,2 C -1,1 C 0,0 C 79 % 84 % 0 % 1007,1 hPa 0,0 l/m 0,0 km/h (0 Bft) W 270 0 min 0,0 UV-I -2,3 C -1,1 C 0,0 km/h (0 Bft)
08.02.2014 07:55 0,9 C 12,6 C -0,1 C 0,2 C -1,1 C 0,0 C 80 % 84 % 0 % 1007,1 hPa 0,0 l/m 0,2 km/h (0 Bft) SW 225 0 min 0,0 UV-I -2,2 C -1,1 C 0,0 km/h (0 Bft)
08.02.2014 08:00 0,7 C 12,6 C -0,1 C 0,1 C -1,1 C 0,0 C 80 % 84 % 0 % 1007,1 hPa 0,0 l/m 0,2 km/h (0 Bft) O-NO 67 0 min 0,0 UV-I -2,3 C -1,1 C 0,0 km/h (0 Bft)
08.02.2014 08:05 0,7 C 12,5 C -0,1 C 0,2 C -0,8 C 0,0 C 80 % 84 % 0 % 1007,1 hPa 0,0 l/m 0,0 km/h (0 Bft) S-SW 202 0 min 0,0 UV-I -2,3 C -0,8 C 0,0 km/h (0 Bft)
08.02.2014 08:10 0,5 C 12,6 C -0,3 C 0,1 C -0,6 C 0,0 C 80 % 84 % 0 % 1006,6 hPa 0,0 l/m 0,2 km/h (0 Bft) S 180 0 min 0,0 UV-I -2,5 C -0,6 C 0,0 km/h (0 Bft)
08.02.2014 08:15 0,4 C 12,5 C -0,3 C 0,0 C -0,7 C 0,0 C 81 % 84 % 0 % 1006,6 hPa 0,0 l/m 0,2 km/h (0 Bft) O 90 0 min 0,0 UV-I -2,5 C -0,7 C 0,0 km/h (0 Bft)
08.02.2014 08:20 0,9 C 12,4 C 0,4 C 0,7 C 0,4 C 0,0 C 83 % 85 % 0 % 1006,6 hPa 0,0 l/m 0,5 km/h (0 Bft) O-NO 67 0 min 0,0 UV-I -1,7 C 0,4 C 0,0 km/h (0 Bft)
08.02.2014 08:25 1,2 C 12,4 C 0,6 C 1,3 C 1,3 C 0,1 C 83 % 85 % 3 % 1006,6 hPa 0,0 l/m 0,5 km/h (0 Bft) O-NO 67 0 min 0,0 UV-I -1,4 C 1,3 C 0,0 km/h (0 Bft)
08.02.2014 08:30 1,6 C 12,4 C 1,1 C 3,2 C 3,2 C 1,6 C 82 % 85 % 42 % 1006,4 hPa 0,0 l/m 0,2 km/h (0 Bft) NW 315 5 min 0,0 UV-I -1,1 C 3,2 C 0,0 km/h (0 Bft)
08.02.2014 08:35 1,9 C 12,4 C 1,3 C 3,9 C 3,9 C 2,0 C 82 % 85 % 53 % 1006,4 hPa 0,0 l/m 0,2 km/h (0 Bft) S 180 5 min 0,0 UV-I -0,8 C 3,9 C 0,0 km/h (0 Bft)
08.02.2014 08:40 2,3 C 12,3 C 1,7 C 4,9 C 4,9 C 2,6 C 81 % 84 % 68 % 1006,4 hPa 0,0 l/m 0,3 km/h (0 Bft) O-NO 67 5 min 0,0 UV-I -0,6 C 4,9 C 0,0 km/h (0 Bft)
08.02.2014 08:45 2,5 C 12,2 C 2,3 C 5,0 C 5,0 C 2,5 C 81 % 84 % 66 % 1006,4 hPa 0,0 l/m 0,3 km/h (0 Bft) W 270 5 min 0,0 UV-I -0,4 C 5,0 C 0,0 km/h (0 Bft)
08.02.2014 08:50 3,1 C 12,2 C 3,1 C 5,1 C 5,1 C 2,0 C 80 % 84 % 53 % 1006,4 hPa 0,0 l/m 0,8 km/h (0 Bft) O-NO 67 5 min 0,0 UV-I -0,0 C 5,1 C 2,1 km/h (1 Bft)
08.02.2014 08:55 3,2 C 12,2 C 3,3 C 5,1 C 5,1 C 1,9 C 80 % 83 % 50 % 1006,4 hPa 0,0 l/m 1,0 km/h (0 Bft) NO 45 5 min 0,0 UV-I 0,1 C 5,1 C 1,8 km/h (1 Bft)
08.02.2014 09:00 3,7 C 12,2 C 3,4 C 5,5 C 5,5 C 1,8 C 79 % 82 % 47 % 1006,4 hPa 0,0 l/m 0,8 km/h (0 Bft) O 90 5 min 0,0 UV-I 0,4 C 5,5 C 0,0 km/h (0 Bft)
08.02.2014 09:05 3,8 C 12,2 C 3,6 C 5,8 C 5,8 C 2,0 C 78 % 82 % 53 % 1006,4 hPa 0,0 l/m 0,5 km/h (0 Bft) O-NO 67 5 min 0,0 UV-I 0,3 C 5,8 C 1,8 km/h (1 Bft)
08.02.2014 09:10 4,1 C 12,2 C 3,8 C 5,8 C 5,8 C 1,7 C 77 % 81 % 45 % 1005,9 hPa 0,0 l/m 0,6 km/h (0 Bft) S-SO 157 0 min 0,0 UV-I 0,4 C 5,8 C 1,8 km/h (1 Bft)
08.02.2014 09:15 4,3 C 12,2 C 3,9 C 5,8 C 5,8 C 1,5 C 77 % 80 % 39 % 1005,9 hPa 0,0 l/m 0,8 km/h (0 Bft) O-NO 67 0 min 0,0 UV-I 0,6 C 5,8 C 2,7 km/h (1 Bft)
08.02.2014 09:20 4,4 C 12,2 C 4,1 C 5,8 C 5,8 C 1,4 C 77 % 80 % 37 % 1005,9 hPa 0,0 l/m 0,8 km/h (0 Bft) O-NO 67 0 min 0,0 UV-I 0,7 C 5,8 C 0,0 km/h (0 Bft)
08.02.2014 09:25 4,5 C 12,1 C 4,3 C 5,8 C 5,8 C 1,3 C 76 % 80 % 34 % 1005,9 hPa 0,0 l/m 0,5 km/h (0 Bft) N-NO 22 0 min 0,0 UV-I 0,6 C 5,8 C 0,0 km/h (0 Bft)
08.02.2014 09:30 4,7 C 12,1 C 4,3 C 5,7 C 5,7 C 1,0 C 75 % 79 % 26 % 1005,4 hPa 0,0 l/m 0,6 km/h (0 Bft) O 90 0 min 0,0 UV-I 0,7 C 5,7 C 1,8 km/h (1 Bft)
08.02.2014 09:35 4,7 C 12,1 C 4,4 C 5,9 C 5,9 C 1,2 C 75 % 79 % 32 % 1005,4 hPa 0,0 l/m 1,0 km/h (0 Bft) O-SO 112 0 min 0,0 UV-I 0,7 C 5,9 C 0,0 km/h (0 Bft)
08.02.2014 09:40 4,8 C 12,1 C 4,4 C 5,9 C 5,9 C 1,1 C 74 % 78 % 29 % 1005,4 hPa 0,0 l/m 1,8 km/h (1 Bft) S 180 0 min 0,0 UV-I 0,6 C 5,9 C 2,6 km/h (1 Bft)
08.02.2014 09:45 4,8 C 12,1 C 4,4 C 5,8 C 5,8 C 1,0 C 74 % 78 % 26 % 1005,4 hPa 0,0 l/m 1,8 km/h (1 Bft) W-NW 292 0 min 0,0 UV-I 0,6 C 5,8 C 0,0 km/h (0 Bft)
08.02.2014 09:50 4,9 C 12,1 C 4,4 C 5,7 C 5,7 C 0,8 C 73 % 78 % 21 % 1005,6 hPa 0,0 l/m 1,6 km/h (1 Bft) NO 45 0 min 0,0 UV-I 0,5 C 5,7 C 1,6 km/h (1 Bft)
08.02.2014 09:55 5,0 C 12,1 C 4,7 C 5,9 C 5,9 C 0,9 C 73 % 78 % 24 % 1005,6 hPa 0,0 l/m 1,1 km/h (1 Bft) O-NO 67 0 min 0,0 UV-I 0,6 C 5,9 C 0,0 km/h (0 Bft)
08.02.2014 10:00 5,1 C 12,1 C 4,9 C 6,6 C 6,6 C 1,5 C 73 % 78 % 39 % 1005,6 hPa 0,0 l/m 0,5 km/h (0 Bft) S 180 0 min 0,0 UV-I 0,7 C 6,6 C 3,4 km/h (1 Bft)
08.02.2014 10:05 5,2 C 12,1 C 5,1 C 6,9 C 6,9 C 1,7 C 73 % 78 % 45 % 1005,6 hPa 0,0 l/m 0,5 km/h (0 Bft) W-SW 247 0 min 0,0 UV-I 0,8 C 6,9 C 0,0 km/h (0 Bft)
08.02.2014 10:10 5,6 C 12,2 C 5,5 C 7,3 C 7,3 C 1,7 C 72 % 78 % 45 % 1005,5 hPa 0,0 l/m 2,1 km/h (1 Bft) S-SW 202 0 min 0,0 UV-I 1,0 C 7,3 C 0,0 km/h (0 Bft)
08.02.2014 10:15 6,0 C 12,1 C 5,6 C 7,5 C 7,5 C 1,5 C 72 % 77 % 39 % 1005,5 hPa 0,0 l/m 2,3 km/h (1 Bft) S 180 0 min 0,0 UV-I 1,3 C 7,5 C 3,1 km/h (1 Bft)
08.02.2014 10:20 6,3 C 12,1 C 5,7 C 7,6 C 7,6 C 1,3 C 70 % 76 % 34 % 1005,5 hPa 0,0 l/m 1,8 km/h (1 Bft) S-SO 157 0 min 0,0 UV-I 1,2 C 7,6 C 5,0 km/h (1 Bft)
08.02.2014 10:25 6,5 C 12,1 C 5,9 C 7,7 C 7,7 C 1,2 C 69 % 76 % 32 % 1005,5 hPa 0,0 l/m 2,1 km/h (1 Bft) O-SO 112 0 min 0,0 UV-I 1,2 C 7,7 C 1,8 km/h (1 Bft)
08.02.2014 10:30 6,5 C 12,1 C 5,9 C 7,7 C 7,7 C 1,2 C 68 % 75 % 32 % 1005,2 hPa 0,0 l/m 2,4 km/h (1 Bft) SO 135 0 min 0,0 UV-I 1,0 C 7,7 C 2,3 km/h (1 Bft)
08.02.2014 10:35 6,7 C 12,1 C 5,9 C 7,7 C 7,7 C 1,0 C 67 % 74 % 26 % 1005,2 hPa 0,0 l/m 2,9 km/h (1 Bft) O-NO 67 0 min 0,0 UV-I 1,0 C 7,7 C 2,3 km/h (1 Bft)
08.02.2014 10:40 6,9 C 12,1 C 6,1 C 7,3 C 7,3 C 0,4 C 64 % 72 % 11 % 1005,2 hPa 0,0 l/m 4,5 km/h (1 Bft) N-NO 22 0 min 0,0 UV-I 0,6 C 7,3 C 0,0 km/h (0 Bft)
08.02.2014 10:45 7,1 C 12,1 C 6,3 C 7,4 C 7,4 C 0,3 C 64 % 72 % 8 % 1005,2 hPa 0,0 l/m 4,5 km/h (1 Bft) S-SO 157 0 min 0,0 UV-I 0,8 C 7,4 C 8,0 km/h (2 Bft)
08.02.2014 10:50 7,2 C 12,1 C 6,5 C 7,9 C 7,9 C 0,7 C 64 % 71 % 18 % 1005,1 hPa 0,0 l/m 4,5 km/h (1 Bft) SO 135 0 min 0,0 UV-I 0,9 C 7,9 C 3,4 km/h (1 Bft)
08.02.2014 10:55 7,3 C 12,1 C 6,7 C 8,1 C 8,1 C 0,8 C 63 % 70 % 21 % 1005,1 hPa 0,0 l/m 5,1 km/h (1 Bft) SO 135 0 min 0,0 UV-I 0,7 C 7,6 C 4,2 km/h (1 Bft)
08.02.2014 11:00 7,5 C 12,1 C 6,8 C 8,9 C 8,9 C 1,4 C 63 % 70 % 37 % 1005,1 hPa 0,0 l/m 4,3 km/h (1 Bft) S 180 0 min 0,0 UV-I 0,9 C 8,9 C 6,9 km/h (2 Bft)
08.02.2014 11:05 7,7 C 12,1 C 7,1 C 9,1 C 9,1 C 1,4 C 61 % 69 % 37 % 1005,1 hPa 0,0 l/m 5,1 km/h (1 Bft) S-SO 157 0 min 0,0 UV-I 0,7 C 8,7 C 14,5 km/h (3 Bft)
08.02.2014 11:10 8,0 C 12,2 C 7,4 C 9,1 C 9,1 C 1,1 C 59 % 68 % 29 % 1004,5 hPa 0,0 l/m 7,1 km/h (2 Bft) S 180 0 min 0,0 UV-I 0,5 C 8,2 C 9,8 km/h (2 Bft)
08.02.2014 11:15 8,3 C 12,2 C 7,6 C 9,2 C 9,2 C 0,9 C 59 % 67 % 24 % 1004,5 hPa 0,0 l/m 6,9 km/h (2 Bft) SO 135 0 min 0,0 UV-I 0,8 C 8,3 C 7,6 km/h (2 Bft)
08.02.2014 11:20 8,4 C 12,2 C 7,7 C 9,7 C 9,7 C 1,3 C 58 % 66 % 34 % 1004,5 hPa 0,0 l/m 6,3 km/h (2 Bft) S-SO 157 0 min 0,0 UV-I 0,6 C 9,0 C 8,2 km/h (2 Bft)
08.02.2014 11:25 8,4 C 12,2 C 7,7 C 9,5 C 9,5 C 1,1 C 58 % 65 % 29 % 1004,5 hPa 0,0 l/m 6,3 km/h (2 Bft) S 180 0 min 0,0 UV-I 0,6 C 8,8 C 9,7 km/h (2 Bft)
08.02.2014 11:30 8,7 C 12,2 C 8,1 C 9,8 C 9,8 C 1,1 C 56 % 63 % 29 % 1004,1 hPa 0,0 l/m 5,8 km/h (2 Bft) O-NO 67 0 min 0,0 UV-I 0,4 C 9,3 C 7,1 km/h (2 Bft)
08.02.2014 11:35 8,8 C 12,2 C 8,2 C 10,3 C 10,3 C 1,5 C 55 % 63 % 39 % 1004,1 hPa 0,0 l/m 6,4 km/h (2 Bft) S 180 0 min 0,0 UV-I 0,3 C 10,3 C 10,6 km/h (2 Bft)
08.02.2014 11:40 9,1 C 12,1 C 8,4 C 10,7 C 10,7 C 1,6 C 55 % 62 % 42 % 1004,1 hPa 0,0 l/m 6,4 km/h (2 Bft) O 90 0 min 0,0 UV-I 0,5 C 10,7 C 9,0 km/h (2 Bft)
08.02.2014 11:45 9,1 C 12,1 C 8,7 C 10,8 C 10,8 C 1,7 C 54 % 61 % 45 % 1004,1 hPa 0,0 l/m 6,1 km/h (2 Bft) S 180 0 min 0,0 UV-I 0,3 C 10,8 C 6,1 km/h (2 Bft)
08.02.2014 11:50 9,2 C 12,1 C 8,7 C 10,1 C 10,1 C 0,9 C 52 % 60 % 24 % 1003,9 hPa 0,0 l/m 7,6 km/h (2 Bft) S 180 0 min 0,0 UV-I -0,1 C 10,1 C 7,4 km/h (2 Bft)
08.02.2014 11:55 9,3 C 12,1 C 8,8 C 10,3 C 10,3 C 1,0 C 52 % 60 % 26 % 1003,9 hPa 0,0 l/m 6,8 km/h (2 Bft) S 180 0 min 0,0 UV-I -0,0 C 10,3 C 4,0 km/h (1 Bft)
08.02.2014 12:00 9,2 C 12,1 C 8,8 C 10,4 C 10,4 C 1,2 C 52 % 60 % 32 % 1003,9 hPa 0,0 l/m 5,8 km/h (2 Bft) S-SO 157 0 min 0,0 UV-I -0,1 C 10,4 C 10,8 km/h (2 Bft)
08.02.2014 12:05 9,3 C 12,1 C 8,7 C 10,3 C 10,3 C 1,0 C 51 % 59 % 26 % 1003,9 hPa 0,0 l/m 6,3 km/h (2 Bft) S-SW 202 0 min 0,0 UV-I -0,3 C 10,3 C 9,8 km/h (2 Bft)
08.02.2014 12:10 9,4 C 12,1 C 8,9 C 10,1 C 10,1 C 0,7 C 51 % 59 % 18 % 1003,9 hPa 0,0 l/m 7,1 km/h (2 Bft) S-SO 157 0 min 0,0 UV-I -0,2 C 10,1 C 11,7 km/h (2 Bft)
08.02.2014 12:15 9,5 C 12,1 C 8,8 C 10,3 C 10,3 C 0,8 C 51 % 59 % 21 % 1003,9 hPa 0,0 l/m 6,3 km/h (2 Bft) O-NO 67 0 min 0,0 UV-I -0,1 C 10,3 C 4,5 km/h (1 Bft)
08.02.2014 12:20 9,5 C 12,2 C 8,8 C 10,7 C 10,7 C 1,2 C 51 % 58 % 32 % 1003,9 hPa 0,0 l/m 5,8 km/h (2 Bft) SW 225 0 min 0,0 UV-I -0,1 C 10,7 C 5,8 km/h (2 Bft)
08.02.2014 12:25 9,5 C 12,2 C 8,8 C 11,0 C 11,0 C 1,5 C 51 % 58 % 39 % 1003,9 hPa 0,0 l/m 5,0 km/h (1 Bft) O-SO 112 0 min 0,0 UV-I -0,1 C 11,0 C 4,0 km/h (1 Bft)
08.02.2014 12:30 9,6 C 12,2 C 8,8 C 11,1 C 11,1 C 1,5 C 50 % 57 % 39 % 1003,2 hPa 0,0 l/m 5,0 km/h (1 Bft) SO 135 0 min 0,0 UV-I -0,3 C 11,1 C 5,1 km/h (1 Bft)
08.02.2014 12:35 9,6 C 12,2 C 8,9 C 10,7 C 10,7 C 1,1 C 51 % 58 % 29 % 1003,2 hPa 0,0 l/m 5,8 km/h (2 Bft) N-NO 22 0 min 0,0 UV-I -0,0 C 10,7 C 5,8 km/h (2 Bft)
08.02.2014 12:40 9,7 C 12,2 C 9,0 C 10,6 C 10,6 C 0,9 C 50 % 58 % 24 % 1003,2 hPa 0,0 l/m 6,1 km/h (2 Bft) S 180 0 min 0,0 UV-I -0,2 C 10,6 C 3,4 km/h (1 Bft)
08.02.2014 12:45 9,7 C 12,2 C 9,1 C 10,9 C 10,9 C 1,2 C 51 % 57 % 32 % 1003,2 hPa 0,0 l/m 5,0 km/h (1 Bft) S-SO 157 0 min 0,0 UV-I 0,1 C 10,9 C 5,3 km/h (1 Bft)
08.02.2014 12:50 9,7 C 12,2 C 9,2 C 10,9 C 10,9 C 1,2 C 50 % 57 % 32 % 1003,1 hPa 0,0 l/m 4,7 km/h (1 Bft) O-SO 112 0 min 0,0 UV-I -0,2 C 10,9 C 6,8 km/h (2 Bft)
08.02.2014 12:55 9,7 C 12,2 C 9,3 C 10,9 C 10,9 C 1,2 C 49 % 56 % 32 % 1003,1 hPa 0,0 l/m 4,8 km/h (1 Bft) SO 135 0 min 0,0 UV-I -0,5 C 10,9 C 10,9 km/h (2 Bft)
08.02.2014 13:00 9,8 C 12,2 C 9,4 C 11,1 C 11,1 C 1,3 C 50 % 56 % 34 % 1003,1 hPa 0,0 l/m 5,0 km/h (1 Bft) SO 135 0 min 0,0 UV-I -0,1 C 11,1 C 6,1 km/h (2 Bft)
08.02.2014 13:05 9,9 C 12,2 C 9,5 C 11,2 C 11,2 C 1,3 C 50 % 56 % 34 % 1003,1 hPa 0,0 l/m 4,8 km/h (1 Bft) S 180 0 min 0,0 UV-I -0,0 C 11,2 C 4,8 km/h (1 Bft)
08.02.2014 13:10 9,9 C 12,3 C 9,5 C 11,4 C 11,4 C 1,5 C 50 % 56 % 39 % 1002,9 hPa 0,0 l/m 4,0 km/h (1 Bft) S 180 0 min 0,0 UV-I -0,0 C 11,4 C 9,0 km/h (2 Bft)
08.02.2014 13:15 9,9 C 12,3 C 9,6 C 11,3 C 11,3 C 1,4 C 49 % 56 % 37 % 1002,9 hPa 0,0 l/m 5,1 km/h (1 Bft) S-SO 157 0 min 0,0 UV-I -0,3 C 11,3 C 9,3 km/h (2 Bft)
08.02.2014 13:20 9,9 C 12,3 C 9,7 C 11,2 C 11,2 C 1,3 C 49 % 56 % 34 % 1002,9 hPa 0,0 l/m 5,6 km/h (1 Bft) S-SW 202 0 min 0,0 UV-I -0,3 C 11,2 C 4,5 km/h (1 Bft)
08.02.2014 13:25 10,0 C 12,3 C 9,6 C 11,7 C 11,7 C 1,7 C 50 % 56 % 45 % 1002,9 hPa 0,0 l/m 5,0 km/h (1 Bft) S 180 0 min 0,0 UV-I 0,1 C 11,7 C 2,1 km/h (1 Bft)
08.02.2014 13:30 10,1 C 12,3 C 9,9 C 12,0 C 12,0 C 1,9 C 49 % 56 % 50 % 1002,5 hPa 0,0 l/m 4,5 km/h (1 Bft) N-NW 337 0 min 0,0 UV-I -0,1 C 12,0 C 2,1 km/h (1 Bft)
08.02.2014 13:35 10,1 C 12,3 C 9,9 C 12,0 C 12,0 C 1,9 C 49 % 55 % 50 % 1002,5 hPa 0,0 l/m 4,7 km/h (1 Bft) S-SO 157 0 min 0,0 UV-I -0,1 C 12,0 C 7,1 km/h (2 Bft)
08.02.2014 13:40 10,3 C 12,3 C 10,0 C 12,0 C 12,0 C 1,7 C 50 % 56 % 45 % 1002,5 hPa 0,0 l/m 3,9 km/h (1 Bft) O-NO 67 0 min 0,0 UV-I 0,3 C 12,0 C 8,2 km/h (2 Bft)
08.02.2014 13:45 10,3 C 12,4 C 10,1 C 12,1 C 12,1 C 1,8 C 50 % 56 % 47 % 1002,5 hPa 0,0 l/m 2,7 km/h (1 Bft) SW 225 0 min 0,0 UV-I 0,3 C 12,1 C 2,1 km/h (1 Bft)
08.02.2014 13:50 10,3 C 12,4 C 10,3 C 12,3 C 12,3 C 2,0 C 50 % 56 % 53 % 1002,3 hPa 0,0 l/m 3,2 km/h (1 Bft) S-SW 202 0 min 0,0 UV-I 0,3 C 12,3 C 5,8 km/h (2 Bft)
08.02.2014 13:55 10,3 C 12,4 C 10,1 C 12,1 C 12,1 C 1,8 C 50 % 55 % 47 % 1002,3 hPa 0,0 l/m 3,1 km/h (1 Bft) N-NO 22 0 min 0,0 UV-I 0,3 C 12,1 C 3,4 km/h (1 Bft)
08.02.2014 14:00 10,2 C 12,4 C 9,9 C 11,8 C 11,8 C 1,6 C 50 % 56 % 42 % 1002,3 hPa 0,0 l/m 2,9 km/h (1 Bft) O-NO 67 0 min 0,0 UV-I 0,3 C 11,8 C 4,3 km/h (1 Bft)
08.02.2014 14:05 10,1 C 12,4 C 9,8 C 11,4 C 11,4 C 1,3 C 50 % 56 % 34 % 1002,3 hPa 0,0 l/m 3,5 km/h (1 Bft) S-SO 157 0 min 0,0 UV-I 0,2 C 11,4 C 9,0 km/h (2 Bft)
08.02.2014 14:10 10,1 C 12,4 C 9,7 C 11,2 C 11,2 C 1,1 C 50 % 56 % 29 % 1001,6 hPa 0,0 l/m 3,7 km/h (1 Bft) O-NO 67 0 min 0,0 UV-I 0,2 C 11,2 C 1,9 km/h (1 Bft)
08.02.2014 14:15 10,0 C 12,4 C 9,6 C 11,2 C 11,2 C 1,2 C 50 % 57 % 32 % 1001,6 hPa 0,0 l/m 3,2 km/h (1 Bft) NW 315 0 min 0,0 UV-I 0,1 C 11,2 C 5,8 km/h (2 Bft)
08.02.2014 14:20 10,0 C 12,4 C 9,6 C 11,0 C 11,0 C 1,0 C 50 % 56 % 26 % 1001,6 hPa 0,0 l/m 2,6 km/h (1 Bft) N-NW 337 0 min 0,0 UV-I 0,1 C 11,0 C 4,0 km/h (1 Bft)
08.02.2014 14:25 9,9 C 12,4 C 9,5 C 10,9 C 10,9 C 1,0 C 50 % 56 % 26 % 1001,6 hPa 0,0 l/m 3,1 km/h (1 Bft) S-SO 157 0 min 0,0 UV-I -0,0 C 10,9 C 4,0 km/h (1 Bft)
08.02.2014 14:30 9,9 C 12,5 C 9,5 C 10,8 C 10,8 C 0,9 C 50 % 56 % 24 % 1001,1 hPa 0,0 l/m 4,2 km/h (1 Bft) S-SO 157 0 min 0,0 UV-I -0,0 C 10,8 C 6,3 km/h (2 Bft)
08.02.2014 14:35 9,9 C 12,6 C 9,4 C 10,8 C 10,8 C 0,9 C 51 % 57 % 24 % 1001,1 hPa 0,0 l/m 4,5 km/h (1 Bft) O-NO 67 0 min 0,0 UV-I 0,2 C 10,8 C 5,8 km/h (2 Bft)
08.02.2014 14:40 9,8 C 12,6 C 9,4 C 10,8 C 10,8 C 1,0 C 52 % 57 % 26 % 1001,1 hPa 0,0 l/m 2,4 km/h (1 Bft) O-SO 112 0 min 0,0 UV-I 0,4 C 10,8 C 0,0 km/h (0 Bft)
08.02.2014 14:45 9,9 C 12,6 C 9,5 C 10,8 C 10,8 C 0,9 C 52 % 58 % 24 % 1001,1 hPa 0,0 l/m 1,3 km/h (1 Bft) N 360 0 min 0,0 UV-I 0,5 C 10,8 C 2,6 km/h (1 Bft)
08.02.2014 14:50 9,9 C 12,6 C 9,3 C 10,6 C 10,6 C 0,7 C 52 % 57 % 18 % 1000,9 hPa 0,0 l/m 1,8 km/h (1 Bft) NO 45 0 min 0,0 UV-I 0,5 C 10,6 C 2,4 km/h (1 Bft)
08.02.2014 14:55 9,7 C 12,6 C 9,2 C 10,5 C 10,5 C 0,8 C 52 % 57 % 21 % 1000,9 hPa 0,0 l/m 1,9 km/h (1 Bft) S-SO 157 0 min 0,0 UV-I 0,3 C 10,5 C 4,0 km/h (1 Bft)
08.02.2014 15:00 9,7 C 12,6 C 9,2 C 10,4 C 10,4 C 0,7 C 52 % 58 % 18 % 1000,9 hPa 0,0 l/m 1,6 km/h (1 Bft) NO 45 0 min 0,0 UV-I 0,3 C 10,4 C 3,4 km/h (1 Bft)
08.02.2014 15:05 9,6 C 12,6 C 9,1 C 10,3 C 10,3 C 0,7 C 52 % 58 % 18 % 1000,9 hPa 0,0 l/m 1,8 km/h (1 Bft) NO 45 0 min 0,0 UV-I 0,2 C 10,3 C 2,3 km/h (1 Bft)
08.02.2014 15:10 9,6 C 12,6 C 9,1 C 10,2 C 10,2 C 0,6 C 52 % 58 % 16 % 1000,8 hPa 0,0 l/m 1,6 km/h (1 Bft) O-NO 67 0 min 0,0 UV-I 0,2 C 10,2 C 6,0 km/h (2 Bft)
08.02.2014 15:15 9,6 C 12,6 C 9,1 C 10,1 C 10,1 C 0,5 C 52 % 58 % 13 % 1000,8 hPa 0,0 l/m 2,1 km/h (1 Bft) O-NO 67 0 min 0,0 UV-I 0,2 C 10,1 C 4,3 km/h (1 Bft)
08.02.2014 15:20 9,6 C 12,6 C 9,1 C 10,1 C 10,1 C 0,5 C 52 % 58 % 13 % 1000,8 hPa 0,0 l/m 2,4 km/h (1 Bft) SW 225 0 min 0,0 UV-I 0,2 C 10,1 C 5,8 km/h (2 Bft)
08.02.2014 15:25 9,6 C 12,7 C 9,0 C 10,0 C 10,0 C 0,4 C 52 % 58 % 11 % 1000,8 hPa 0,0 l/m 2,6 km/h (1 Bft) O-NO 67 0 min 0,0 UV-I 0,2 C 10,0 C 1,9 km/h (1 Bft)
08.02.2014 15:30 9,6 C 12,7 C 8,8 C 10,0 C 10,0 C 0,4 C 52 % 59 % 11 % 1000,6 hPa 0,0 l/m 2,6 km/h (1 Bft) N 360 0 min 0,0 UV-I 0,2 C 10,0 C 2,1 km/h (1 Bft)
08.02.2014 15:35 9,6 C 12,7 C 8,8 C 10,0 C 10,0 C 0,4 C 52 % 59 % 11 % 1000,6 hPa 0,0 l/m 2,3 km/h (1 Bft) O-NO 67 0 min 0,0 UV-I 0,2 C 10,0 C 6,3 km/h (2 Bft)
08.02.2014 15:40 9,6 C 12,7 C 8,8 C 9,9 C 9,9 C 0,3 C 52 % 58 % 8 % 1000,6 hPa 0,0 l/m 2,1 km/h (1 Bft) O-SO 112 0 min 0,0 UV-I 0,2 C 9,9 C 2,1 km/h (1 Bft)
08.02.2014 15:45 9,5 C 12,7 C 8,7 C 9,9 C 9,9 C 0,4 C 52 % 58 % 11 % 1000,6 hPa 0,0 l/m 1,8 km/h (1 Bft) W-NW 292 0 min 0,0 UV-I 0,1 C 9,9 C 0,0 km/h (0 Bft)
08.02.2014 15:50 9,5 C 12,7 C 8,7 C 9,8 C 9,8 C 0,3 C 52 % 59 % 8 % 1000,2 hPa 0,0 l/m 1,0 km/h (0 Bft) O-NO 67 0 min 0,0 UV-I 0,1 C 9,8 C 0,0 km/h (0 Bft)
08.02.2014 15:55 9,5 C 12,7 C 8,5 C 9,6 C 9,6 C 0,1 C 53 % 59 % 3 % 1000,2 hPa 0,0 l/m 1,0 km/h (0 Bft) O-NO 67 0 min 0,0 UV-I 0,4 C 9,6 C 2,9 km/h (1 Bft)
08.02.2014 16:00 9,3 C 12,7 C 8,4 C 9,5 C 9,5 C 0,2 C 53 % 61 % 5 % 1000,2 hPa 0,0 l/m 1,4 km/h (1 Bft) O 90 0 min 0,0 UV-I 0,2 C 9,5 C 2,4 km/h (1 Bft)
08.02.2014 16:05 9,2 C 12,7 C 8,5 C 9,3 C 9,3 C 0,1 C 54 % 61 % 3 % 1000,2 hPa 0,0 l/m 1,3 km/h (1 Bft) S-SO 157 0 min 0,0 UV-I 0,4 C 9,3 C 1,6 km/h (1 Bft)
08.02.2014 16:10 9,2 C 12,7 C 8,3 C 9,2 C 9,2 C 0,0 C 55 % 61 % 0 % 999,8 hPa 0,0 l/m 1,4 km/h (1 Bft) O-NO 67 0 min 0,0 UV-I 0,6 C 9,2 C 1,9 km/h (1 Bft)
08.02.2014 16:15 9,1 C 12,7 C 8,2 C 9,1 C 9,1 C 0,0 C 55 % 62 % 0 % 999,8 hPa 0,0 l/m 1,6 km/h (1 Bft) N-NO 22 0 min 0,0 UV-I 0,5 C 9,1 C 0,0 km/h (0 Bft)
08.02.2014 16:20 8,9 C 12,7 C 8,1 C 8,9 C 8,9 C 0,0 C 55 % 62 % 0 % 999,8 hPa 0,0 l/m 1,4 km/h (1 Bft) O-SO 112 0 min 0,0 UV-I 0,4 C 8,9 C 0,0 km/h (0 Bft)
08.02.2014 16:25 8,9 C 12,7 C 8,0 C 8,9 C 8,8 C 0,0 C 56 % 62 % 0 % 999,8 hPa 0,0 l/m 1,1 km/h (1 Bft) O-SO 112 0 min 0,0 UV-I 0,6 C 8,8 C 4,0 km/h (1 Bft)
08.02.2014 16:30 8,9 C 12,7 C 7,9 C 8,8 C 8,7 C 0,0 C 56 % 63 % 0 % 999,8 hPa 0,0 l/m 1,1 km/h (1 Bft) S 180 0 min 0,0 UV-I 0,6 C 8,7 C 1,8 km/h (1 Bft)
08.02.2014 16:35 8,8 C 12,7 C 7,9 C 8,7 C 8,6 C 0,0 C 56 % 63 % 0 % 999,8 hPa 0,0 l/m 1,0 km/h (0 Bft) NO 45 0 min 0,0 UV-I 0,5 C 8,6 C 0,0 km/h (0 Bft)
08.02.2014 16:40 8,7 C 12,8 C 7,8 C 8,6 C 8,5 C 0,0 C 57 % 63 % 0 % 999,8 hPa 0,0 l/m 1,0 km/h (0 Bft) O-SO 112 0 min 0,0 UV-I 0,7 C 8,5 C 2,4 km/h (1 Bft)
08.02.2014 16:45 8,7 C 12,8 C 7,7 C 8,6 C 8,4 C 0,0 C 57 % 63 % 0 % 999,8 hPa 0,0 l/m 1,0 km/h (0 Bft) S-SO 157 0 min 0,0 UV-I 0,7 C 8,4 C 2,9 km/h (1 Bft)
08.02.2014 16:50 8,5 C 12,8 C 7,6 C 8,4 C 8,3 C 0,0 C 57 % 64 % 0 % 999,6 hPa 0,0 l/m 1,6 km/h (1 Bft) O-SO 112 0 min 0,0 UV-I 0,5 C 8,3 C 2,9 km/h (1 Bft)
08.02.2014 16:55 8,5 C 12,8 C 7,7 C 8,4 C 8,3 C 0,0 C 58 % 64 % 0 % 999,6 hPa 0,0 l/m 1,6 km/h (1 Bft) NO 45 0 min 0,0 UV-I 0,7 C 8,3 C 2,3 km/h (1 Bft)
08.02.2014 17:00 8,4 C 12,8 C 7,7 C 8,4 C 8,3 C 0,0 C 58 % 64 % 0 % 999,6 hPa 0,0 l/m 1,3 km/h (1 Bft) N-NW 337 0 min 0,0 UV-I 0,6 C 8,3 C 0,0 km/h (0 Bft)
08.02.2014 17:05 8,4 C 12,8 C 7,7 C 8,4 C 8,3 C 0,0 C 58 % 65 % 0 % 999,6 hPa 0,0 l/m 1,3 km/h (1 Bft) NO 45 0 min 0,0 UV-I 0,6 C 8,3 C 1,9 km/h (1 Bft)
08.02.2014 17:10 8,5 C 12,8 C 7,6 C 8,4 C 8,3 C 0,0 C 58 % 65 % 0 % 999,4 hPa 0,0 l/m 1,9 km/h (1 Bft) S-SW 202 0 min 0,0 UV-I 0,7 C 8,3 C 2,3 km/h (1 Bft)
08.02.2014 17:15 8,5 C 12,8 C 7,6 C 8,4 C 8,3 C 0,0 C 58 % 65 % 0 % 999,4 hPa 0,0 l/m 2,6 km/h (1 Bft) O-NO 67 0 min 0,0 UV-I 0,7 C 8,3 C 2,6 km/h (1 Bft)
08.02.2014 17:20 8,4 C 12,8 C 7,6 C 8,4 C 8,3 C 0,0 C 58 % 65 % 0 % 999,4 hPa 0,0 l/m 3,5 km/h (1 Bft) S-SO 157 0 min 0,0 UV-I 0,6 C 8,3 C 7,2 km/h (2 Bft)
08.02.2014 17:25 8,5 C 12,8 C 7,6 C 8,5 C 8,4 C 0,0 C 58 % 65 % 0 % 999,4 hPa 0,0 l/m 3,2 km/h (1 Bft) O-NO 67 0 min 0,0 UV-I 0,7 C 8,4 C 5,3 km/h (1 Bft)
08.02.2014 17:30 8,5 C 12,8 C 7,8 C 8,5 C 8,4 C 0,0 C 58 % 65 % 0 % 999,6 hPa 0,0 l/m 2,9 km/h (1 Bft) SO 135 0 min 0,0 UV-I 0,7 C 8,4 C 5,0 km/h (1 Bft)
08.02.2014 17:35 8,5 C 12,8 C 7,6 C 8,5 C 8,4 C 0,0 C 58 % 65 % 0 % 999,6 hPa 0,0 l/m 3,1 km/h (1 Bft) S-SO 157 0 min 0,0 UV-I 0,7 C 8,4 C 2,1 km/h (1 Bft)
08.02.2014 17:40 8,5 C 12,8 C 7,7 C 8,5 C 8,5 C 0,0 C 58 % 65 % 0 % 999,6 hPa 0,0 l/m 3,2 km/h (1 Bft) O-NO 67 0 min 0,0 UV-I 0,7 C 8,5 C 3,2 km/h (1 Bft)
08.02.2014 17:45 8,5 C 12,8 C 7,7 C 8,5 C 8,5 C 0,0 C 58 % 65 % 0 % 999,6 hPa 0,0 l/m 3,4 km/h (1 Bft) O-SO 112 0 min 0,0 UV-I 0,7 C 8,5 C 4,0 km/h (1 Bft)
08.02.2014 17:50 8,4 C 12,8 C 7,7 C 8,4 C 8,4 C 0,0 C 58 % 64 % 0 % 999,6 hPa 0,0 l/m 3,7 km/h (1 Bft) O 90 0 min 0,0 UV-I 0,6 C 8,4 C 4,2 km/h (1 Bft)
08.02.2014 17:55 8,7 C 12,8 C 8,0 C 8,6 C 8,5 C 0,0 C 56 % 62 % 0 % 999,6 hPa 0,0 l/m 4,0 km/h (1 Bft) O-SO 112 0 min 0,0 UV-I 0,4 C 8,5 C 2,4 km/h (1 Bft)
08.02.2014 18:00 9,0 C 12,8 C 8,3 C 9,0 C 8,9 C 0,0 C 53 % 60 % 0 % 999,6 hPa 0,0 l/m 4,0 km/h (1 Bft) O-SO 112 0 min 0,0 UV-I -0,1 C 8,9 C 3,7 km/h (1 Bft)
08.02.2014 18:05 9,1 C 12,8 C 8,2 C 9,1 C 9,1 C 0,0 C 53 % 60 % 0 % 999,6 hPa 0,0 l/m 3,4 km/h (1 Bft) NO 45 0 min 0,0 UV-I 0,0 C 9,1 C 6,3 km/h (2 Bft)
08.02.2014 18:10 9,1 C 12,8 C 8,1 C 9,1 C 9,1 C 0,0 C 53 % 60 % 0 % 999,8 hPa 0,0 l/m 2,4 km/h (1 Bft) SO 135 0 min 0,0 UV-I 0,0 C 9,1 C 0,0 km/h (0 Bft)
08.02.2014 18:15 9,1 C 12,8 C 8,0 C 9,1 C 9,0 C 0,0 C 54 % 61 % 0 % 999,8 hPa 0,0 l/m 2,1 km/h (1 Bft) O 90 0 min 0,0 UV-I 0,3 C 9,0 C 2,1 km/h (1 Bft)
08.02.2014 18:20 8,9 C 12,8 C 7,9 C 8,9 C 8,9 C 0,0 C 54 % 61 % 0 % 999,8 hPa 0,0 l/m 1,9 km/h (1 Bft) S 180 0 min 0,0 UV-I 0,1 C 8,9 C 3,7 km/h (1 Bft)
08.02.2014 18:25 8,8 C 12,8 C 7,7 C 8,8 C 8,8 C 0,0 C 54 % 62 % 0 % 999,8 hPa 0,0 l/m 2,7 km/h (1 Bft) O 90 0 min 0,0 UV-I 0,0 C 8,8 C 2,3 km/h (1 Bft)
08.02.2014 18:30 8,8 C 12,8 C 7,6 C 8,7 C 8,6 C 0,0 C 55 % 62 % 0 % 999,8 hPa 0,0 l/m 2,4 km/h (1 Bft) O-SO 112 0 min 0,0 UV-I 0,3 C 8,6 C 0,0 km/h (0 Bft)
08.02.2014 18:35 8,6 C 12,8 C 7,6 C 8,6 C 8,5 C 0,0 C 56 % 63 % 0 % 999,8 hPa 0,0 l/m 1,9 km/h (1 Bft) O 90 0 min 0,0 UV-I 0,3 C 8,5 C 3,2 km/h (1 Bft)
08.02.2014 18:40 8,5 C 12,8 C 7,5 C 8,4 C 8,3 C 0,0 C 56 % 63 % 0 % 999,8 hPa 0,0 l/m 1,8 km/h (1 Bft) O-NO 67 0 min 0,0 UV-I 0,2 C 8,3 C 5,1 km/h (1 Bft)
08.02.2014 18:45 8,6 C 12,8 C 7,5 C 8,5 C 8,4 C 0,0 C 56 % 64 % 0 % 999,8 hPa 0,0 l/m 1,9 km/h (1 Bft) O 90 0 min 0,0 UV-I 0,3 C 8,4 C 4,2 km/h (1 Bft)
08.02.2014 18:50 8,6 C 12,9 C 7,5 C 8,5 C 8,4 C 0,0 C 56 % 64 % 0 % 999,8 hPa 0,0 l/m 2,3 km/h (1 Bft) SO 135 0 min 0,0 UV-I 0,3 C 8,4 C 7,7 km/h (2 Bft)
08.02.2014 18:55 8,7 C 12,9 C 7,4 C 8,6 C 8,4 C 0,0 C 56 % 64 % 0 % 999,8 hPa 0,0 l/m 2,7 km/h (1 Bft) SO 135 0 min 0,0 UV-I 0,4 C 8,4 C 6,9 km/h (2 Bft)
08.02.2014 19:00 8,9 C 12,9 C 7,9 C 8,5 C 7,8 C 0,0 C 56 % 64 % 0 % 999,8 hPa 0,0 l/m 6,8 km/h (2 Bft) SW 225 0 min 0,0 UV-I 0,6 C 6,7 C 24,5 km/h (4 Bft)
08.02.2014 19:05 8,9 C 12,9 C 7,9 C 8,6 C 7,5 C 0,0 C 57 % 64 % 0 % 999,8 hPa 0,0 l/m 8,2 km/h (2 Bft) SO 135 0 min 0,0 UV-I 0,9 C 6,0 C 5,5 km/h (1 Bft)
08.02.2014 19:10 8,9 C 12,9 C 8,0 C 8,6 C 7,6 C 0,0 C 57 % 64 % 0 % 1000,0 hPa 0,0 l/m 8,4 km/h (2 Bft) N-NW 337 0 min 0,0 UV-I 0,9 C 6,1 C 7,1 km/h (2 Bft)
08.02.2014 19:15 8,9 C 12,9 C 8,0 C 8,6 C 7,7 C 0,0 C 58 % 65 % 0 % 1000,0 hPa 0,0 l/m 8,2 km/h (2 Bft) S 180 0 min 0,0 UV-I 1,1 C 6,3 C 21,2 km/h (4 Bft)
08.02.2014 19:20 8,8 C 12,9 C 7,8 C 8,4 C 6,9 C 0,0 C 60 % 67 % 0 % 1000,0 hPa 0,0 l/m 8,0 km/h (2 Bft) S-SW 202 0 min 0,0 UV-I 1,5 C 5,4 C 11,9 km/h (2 Bft)
08.02.2014 19:25 8,7 C 12,9 C 7,7 C 8,1 C 6,4 C 0,0 C 60 % 68 % 0 % 1000,0 hPa 0,0 l/m 7,9 km/h (2 Bft) SO 135 0 min 0,0 UV-I 1,4 C 4,8 C 8,5 km/h (2 Bft)
08.02.2014 19:30 8,6 C 12,9 C 7,6 C 8,1 C 7,1 C 0,0 C 61 % 68 % 0 % 999,9 hPa 0,0 l/m 5,1 km/h (1 Bft) SO 135 0 min 0,0 UV-I 1,5 C 6,4 C 2,4 km/h (1 Bft)
08.02.2014 19:35 8,5 C 12,9 C 7,6 C 8,3 C 7,8 C 0,0 C 61 % 69 % 0 % 999,9 hPa 0,0 l/m 3,9 km/h (1 Bft) SO 135 0 min 0,0 UV-I 1,4 C 7,8 C 5,0 km/h (1 Bft)
08.02.2014 19:40 8,4 C 12,9 C 7,5 C 7,9 C 6,9 C 0,0 C 61 % 69 % 0 % 999,9 hPa 0,0 l/m 4,8 km/h (1 Bft) S-SW 202 0 min 0,0 UV-I 1,3 C 6,3 C 9,8 km/h (2 Bft)
08.02.2014 19:45 8,5 C 12,9 C 7,6 C 7,8 C 6,4 C 0,0 C 60 % 68 % 0 % 999,9 hPa 0,0 l/m 6,9 km/h (2 Bft) S 180 0 min 0,0 UV-I 1,2 C 5,1 C 14,2 km/h (3 Bft)
08.02.2014 19:50 8,7 C 12,9 C 7,6 C 8,1 C 6,8 C 0,0 C 59 % 67 % 0 % 999,9 hPa 0,0 l/m 6,9 km/h (2 Bft) W-NW 292 0 min 0,0 UV-I 1,1 C 5,5 C 5,8 km/h (2 Bft)
08.02.2014 19:55 8,7 C 12,9 C 7,6 C 8,3 C 7,4 C 0,0 C 59 % 67 % 0 % 999,9 hPa 0,0 l/m 5,6 km/h (1 Bft) W-SW 247 0 min 0,0 UV-I 1,1 C 6,6 C 4,7 km/h (1 Bft)
08.02.2014 20:00 8,7 C 12,9 C 7,6 C 8,6 C 8,3 C 0,0 C 59 % 67 % 0 % 999,9 hPa 0,0 l/m 3,7 km/h (1 Bft) S-SW 202 0 min 0,0 UV-I 1,1 C 8,3 C 6,4 km/h (2 Bft)
08.02.2014 20:05 8,7 C 12,9 C 7,7 C 8,6 C 8,5 C 0,0 C 58 % 66 % 0 % 999,9 hPa 0,0 l/m 3,7 km/h (1 Bft) O-SO 112 0 min 0,0 UV-I 0,9 C 8,5 C 5,8 km/h (2 Bft)
08.02.2014 20:10 8,8 C 12,9 C 7,7 C 8,7 C 8,5 C 0,0 C 58 % 66 % 0 % 999,6 hPa 0,0 l/m 4,0 km/h (1 Bft) NW 315 0 min 0,0 UV-I 1,0 C 8,5 C 3,7 km/h (1 Bft)
08.02.2014 20:15 8,8 C 12,9 C 7,9 C 8,7 C 8,6 C 0,0 C 58 % 66 % 0 % 999,6 hPa 0,0 l/m 4,2 km/h (1 Bft) W-SW 247 0 min 0,0 UV-I 1,0 C 8,6 C 9,2 km/h (2 Bft)
08.02.2014 20:20 8,9 C 12,9 C 8,0 C 8,7 C 8,3 C 0,0 C 57 % 65 % 0 % 999,6 hPa 0,0 l/m 5,5 km/h (1 Bft) NO 45 0 min 0,0 UV-I 0,9 C 7,7 C 8,0 km/h (2 Bft)
08.02.2014 20:25 9,1 C 12,9 C 8,0 C 8,9 C 8,5 C 0,0 C 56 % 65 % 0 % 999,6 hPa 0,0 l/m 5,3 km/h (1 Bft) SW 225 0 min 0,0 UV-I 0,8 C 8,0 C 7,7 km/h (2 Bft)
08.02.2014 20:30 9,1 C 12,9 C 7,8 C 9,1 C 9,0 C 0,0 C 57 % 65 % 0 % 999,3 hPa 0,0 l/m 3,2 km/h (1 Bft) S 180 0 min 0,0 UV-I 1,0 C 9,0 C 4,5 km/h (1 Bft)
08.02.2014 20:35 8,9 C 12,9 C 7,8 C 8,9 C 8,9 C 0,0 C 57 % 65 % 0 % 999,3 hPa 0,0 l/m 2,6 km/h (1 Bft) NO 45 0 min 0,0 UV-I 0,9 C 8,9 C 3,1 km/h (1 Bft)
08.02.2014 20:40 8,9 C 12,9 C 7,9 C 8,9 C 8,9 C 0,0 C 57 % 65 % 0 % 999,3 hPa 0,0 l/m 2,6 km/h (1 Bft) O 90 0 min 0,0 UV-I 0,9 C 8,9 C 2,3 km/h (1 Bft)
08.02.2014 20:45 8,8 C 12,9 C 7,9 C 8,9 C 8,9 C 0,1 C 57 % 64 % 0 % 999,3 hPa 0,0 l/m 2,4 km/h (1 Bft) O-NO 67 0 min 0,0 UV-I 0,8 C 8,9 C 2,1 km/h (1 Bft)
08.02.2014 20:50 8,9 C 12,9 C 7,7 C 8,8 C 8,7 C 0,0 C 57 % 65 % 0 % 999,1 hPa 0,0 l/m 1,8 km/h (1 Bft) O-SO 112 0 min 0,0 UV-I 0,9 C 8,7 C 1,9 km/h (1 Bft)
08.02.2014 20:55 8,7 C 12,9 C 7,7 C 8,7 C 8,6 C 0,0 C 58 % 65 % 0 % 999,1 hPa 0,0 l/m 1,6 km/h (1 Bft) O 90 0 min 0,0 UV-I 0,9 C 8,6 C 2,7 km/h (1 Bft)
08.02.2014 21:00 8,7 C 12,9 C 7,7 C 8,7 C 8,6 C 0,0 C 58 % 65 % 0 % 999,1 hPa 0,0 l/m 2,1 km/h (1 Bft) SW 225 0 min 0,0 UV-I 0,9 C 8,6 C 2,4 km/h (1 Bft)
08.02.2014 21:05 8,7 C 12,9 C 7,6 C 8,7 C 8,6 C 0,0 C 58 % 65 % 0 % 999,1 hPa 0,0 l/m 2,3 km/h (1 Bft) S 180 0 min 0,0 UV-I 0,9 C 8,6 C 4,0 km/h (1 Bft)
08.02.2014 21:10 8,7 C 12,9 C 7,7 C 8,7 C 8,6 C 0,0 C 57 % 65 % 0 % 998,8 hPa 0,0 l/m 2,1 km/h (1 Bft) S 180 0 min 0,0 UV-I 0,7 C 8,6 C 1,8 km/h (1 Bft)
08.02.2014 21:15 8,7 C 12,9 C 7,7 C 8,7 C 8,6 C 0,0 C 58 % 65 % 0 % 998,8 hPa 0,0 l/m 2,4 km/h (1 Bft) S 180 0 min 0,0 UV-I 0,9 C 8,6 C 2,3 km/h (1 Bft)
08.02.2014 21:20 8,7 C 12,9 C 7,6 C 8,7 C 8,6 C 0,0 C 57 % 65 % 0 % 998,8 hPa 0,0 l/m 2,4 km/h (1 Bft) SO 135 0 min 0,0 UV-I 0,7 C 8,6 C 2,3 km/h (1 Bft)
08.02.2014 21:25 8,7 C 12,9 C 7,6 C 8,7 C 8,6 C 0,0 C 58 % 65 % 0 % 998,8 hPa 0,0 l/m 1,8 km/h (1 Bft) NW 315 0 min 0,0 UV-I 0,9 C 8,6 C 0,0 km/h (0 Bft)
08.02.2014 21:30 8,6 C 12,9 C 7,7 C 8,6 C 8,6 C 0,0 C 58 % 66 % 0 % 998,8 hPa 0,0 l/m 1,4 km/h (1 Bft) SO 135 0 min 0,0 UV-I 0,8 C 8,6 C 1,6 km/h (1 Bft)
08.02.2014 21:35 8,6 C 12,9 C 7,6 C 8,6 C 8,6 C 0,0 C 58 % 65 % 0 % 998,8 hPa 0,0 l/m 1,1 km/h (1 Bft) NW 315 0 min 0,0 UV-I 0,8 C 8,6 C 2,1 km/h (1 Bft)
08.02.2014 21:40 8,6 C 12,9 C 7,6 C 8,6 C 8,6 C 0,0 C 58 % 65 % 0 % 998,8 hPa 0,0 l/m 1,4 km/h (1 Bft) S 180 0 min 0,0 UV-I 0,8 C 8,6 C 2,1 km/h (1 Bft)
08.02.2014 21:45 8,7 C 12,9 C 7,6 C 8,7 C 8,6 C 0,0 C 58 % 65 % 0 % 998,8 hPa 0,0 l/m 2,9 km/h (1 Bft) S 180 0 min 0,0 UV-I 0,9 C 8,6 C 4,8 km/h (1 Bft)
08.02.2014 21:50 8,8 C 13,0 C 7,6 C 8,6 C 8,2 C 0,0 C 58 % 66 % 0 % 998,6 hPa 0,0 l/m 5,0 km/h (1 Bft) S-SO 157 0 min 0,0 UV-I 1,0 C 7,7 C 9,3 km/h (2 Bft)
08.02.2014 21:55 8,8 C 13,0 C 7,9 C 8,5 C 8,0 C 0,0 C 59 % 66 % 0 % 998,6 hPa 0,0 l/m 5,5 km/h (1 Bft) SO 135 0 min 0,0 UV-I 1,2 C 7,3 C 8,4 km/h (2 Bft)
08.02.2014 22:00 8,9 C 13,0 C 8,0 C 8,5 C 7,7 C 0,0 C 59 % 66 % 0 % 998,6 hPa 0,0 l/m 7,2 km/h (2 Bft) O-NO 67 0 min 0,0 UV-I 1,3 C 6,5 C 5,0 km/h (1 Bft)
08.02.2014 22:05 8,9 C 13,0 C 8,1 C 8,5 C 7,7 C 0,0 C 60 % 67 % 0 % 998,6 hPa 0,0 l/m 8,0 km/h (2 Bft) S 180 0 min 0,0 UV-I 1,6 C 6,3 C 12,1 km/h (2 Bft)
08.02.2014 22:10 8,9 C 13,0 C 8,0 C 8,5 C 7,7 C 0,0 C 60 % 67 % 0 % 998,6 hPa 0,0 l/m 8,0 km/h (2 Bft) O 90 0 min 0,0 UV-I 1,6 C 6,3 C 6,1 km/h (2 Bft)
08.02.2014 22:15 8,9 C 13,0 C 8,0 C 8,6 C 7,9 C 0,0 C 61 % 67 % 0 % 998,6 hPa 0,0 l/m 7,1 km/h (2 Bft) O-NO 67 0 min 0,0 UV-I 1,8 C 6,8 C 6,1 km/h (2 Bft)
08.02.2014 22:20 8,8 C 13,0 C 8,0 C 8,7 C 8,5 C 0,0 C 62 % 68 % 0 % 998,6 hPa 0,0 l/m 5,0 km/h (1 Bft) W-SW 247 0 min 0,0 UV-I 1,9 C 8,1 C 4,0 km/h (1 Bft)
08.02.2014 22:25 8,9 C 13,0 C 8,0 C 8,7 C 8,4 C 0,0 C 62 % 69 % 0 % 998,6 hPa 0,0 l/m 4,5 km/h (1 Bft) N-NO 22 0 min 0,0 UV-I 2,0 C 8,4 C 3,2 km/h (1 Bft)
08.02.2014 22:30 8,7 C 13,0 C 7,8 C 8,4 C 7,8 C 0,0 C 63 % 69 % 0 % 998,6 hPa 0,0 l/m 5,3 km/h (1 Bft) S 180 0 min 0,0 UV-I 2,1 C 7,2 C 9,5 km/h (2 Bft)
08.02.2014 22:35 8,7 C 13,0 C 7,8 C 8,3 C 7,4 C 0,0 C 63 % 70 % 0 % 998,6 hPa 0,0 l/m 6,3 km/h (2 Bft) NW 315 0 min 0,0 UV-I 2,1 C 6,4 C 2,1 km/h (1 Bft)
08.02.2014 22:40 8,5 C 13,0 C 7,6 C 8,2 C 7,7 C 0,0 C 63 % 70 % 0 % 998,6 hPa 0,0 l/m 5,0 km/h (1 Bft) S 180 0 min 0,0 UV-I 1,9 C 7,1 C 12,2 km/h (2 Bft)
08.02.2014 22:45 8,5 C 13,0 C 7,6 C 8,3 C 7,9 C 0,0 C 63 % 70 % 0 % 998,6 hPa 0,0 l/m 4,3 km/h (1 Bft) S 180 0 min 0,0 UV-I 1,9 C 7,9 C 4,3 km/h (1 Bft)
08.02.2014 22:50 8,4 C 13,0 C 7,6 C 8,2 C 7,9 C 0,0 C 63 % 70 % 0 % 998,2 hPa 0,0 l/m 4,5 km/h (1 Bft) S-SO 157 0 min 0,0 UV-I 1,8 C 7,9 C 5,3 km/h (1 Bft)
08.02.2014 22:55 8,4 C 13,0 C 7,6 C 8,3 C 8,1 C 0,0 C 63 % 70 % 0 % 998,2 hPa 0,0 l/m 3,4 km/h (1 Bft) O-SO 112 0 min 0,0 UV-I 1,8 C 8,1 C 4,0 km/h (1 Bft)
08.02.2014 23:00 8,3 C 13,0 C 7,4 C 8,1 C 7,8 C 0,0 C 64 % 70 % 0 % 998,2 hPa 0,0 l/m 4,5 km/h (1 Bft) S 180 0 min 0,0 UV-I 1,9 C 7,8 C 10,1 km/h (2 Bft)
08.02.2014 23:05 8,3 C 13,0 C 7,5 C 8,1 C 7,7 C 0,0 C 64 % 71 % 0 % 998,2 hPa 0,0 l/m 4,8 km/h (1 Bft) SW 225 0 min 0,0 UV-I 1,9 C 7,2 C 6,4 km/h (2 Bft)
08.02.2014 23:10 8,2 C 13,0 C 7,5 C 8,0 C 7,7 C 0,0 C 65 % 71 % 0 % 998,2 hPa 0,0 l/m 4,3 km/h (1 Bft) S 180 0 min 0,0 UV-I 2,0 C 7,7 C 3,9 km/h (1 Bft)
08.02.2014 23:15 8,1 C 13,0 C 7,5 C 8,0 C 7,9 C 0,0 C 65 % 71 % 0 % 998,2 hPa 0,0 l/m 3,9 km/h (1 Bft) S-SO 157 0 min 0,0 UV-I 1,9 C 7,9 C 8,5 km/h (2 Bft)
08.02.2014 23:20 8,1 C 13,0 C 7,4 C 7,9 C 7,5 C 0,0 C 65 % 71 % 0 % 998,2 hPa 0,0 l/m 5,0 km/h (1 Bft) W-SW 247 0 min 0,0 UV-I 1,9 C 6,9 C 5,3 km/h (1 Bft)
08.02.2014 23:25 8,1 C 13,0 C 7,3 C 7,9 C 7,4 C 0,0 C 65 % 71 % 0 % 998,2 hPa 0,0 l/m 5,1 km/h (1 Bft) S 180 0 min 0,0 UV-I 1,9 C 6,8 C 6,8 km/h (2 Bft)
08.02.2014 23:30 8,1 C 13,0 C 7,3 C 8,0 C 7,7 C 0,0 C 66 % 72 % 0 % 998,1 hPa 0,0 l/m 4,2 km/h (1 Bft) S-SO 157 0 min 0,0 UV-I 2,1 C 7,7 C 3,9 km/h (1 Bft)
08.02.2014 23:35 8,0 C 13,0 C 7,3 C 7,9 C 7,7 C 0,0 C 66 % 72 % 0 % 998,1 hPa 0,0 l/m 4,0 km/h (1 Bft) S-SO 157 0 min 0,0 UV-I 2,0 C 7,7 C 14,0 km/h (3 Bft)
08.02.2014 23:40 7,9 C 13,0 C 7,3 C 7,8 C 7,5 C 0,0 C 66 % 72 % 0 % 998,1 hPa 0,0 l/m 4,5 km/h (1 Bft) O 90 0 min 0,0 UV-I 1,9 C 7,5 C 9,0 km/h (2 Bft)
08.02.2014 23:45 7,9 C 13,0 C 7,2 C 7,7 C 7,2 C 0,0 C 66 % 72 % 0 % 998,1 hPa 0,0 l/m 4,8 km/h (1 Bft) W 270 0 min 0,0 UV-I 1,9 C 6,7 C 2,9 km/h (1 Bft)
08.02.2014 23:50 7,9 C 13,0 C 7,1 C 7,7 C 7,3 C 0,0 C 67 % 73 % 0 % 998,3 hPa 0,0 l/m 3,9 km/h (1 Bft) S 180 0 min 0,0 UV-I 2,2 C 7,3 C 5,8 km/h (2 Bft)
08.02.2014 23:55 7,7 C 13,0 C 7,1 C 7,4 C 6,9 C 0,0 C 67 % 73 % 0 % 998,3 hPa 0,0 l/m 4,2 km/h (1 Bft) S 180 0 min 0,0 UV-I 2,0 C 6,9 C 7,6 km/h (2 Bft)
_ Min-Zeit 08:15 09:25 08:10 08:15 07:45 00:00 12:55 13:35 00:00 23:30 - 06:50 - - - 00:00 08:10 07:45 05:35
Minimum _ 0,4 C 12,1 C -0,3 C 0,0 C -1,1 C 0,0 C 49 % 55 % 0 % 998,1 hPa - 0,0 km/h (0 Bft) - - - 0,0 UV-I -2,5 C -1,1 C 0,0 km/h (0 Bft)
_ Max-Zeit 13:40 21:50 13:50 13:50 13:50 08:40 08:20 08:20 08:40 01:50 00:00 19:10 - - 08:30 00:00 23:50 13:50 19:00
Maximum _ 10,3 C 13,0 C 10,3 C 12,3 C 12,3 C 2,6 C 83 % 85 % 68 % 1008,2 hPa 0,0 l/m 8,4 km/h
N-NW (2 Bft)
- - 5 min 0,0 UV-I 2,2 C 12,3 C 24,5 km/h
SW (4 Bft)
Durchschnitt _ 6,9 C 12,6 C 6,0 C 7,0 C 6,5 C 0,4 C 64 % 70 % 10 % 1003,6 hPa #0,0 l/m 3,6 km/h (1 Bft) S - #40 min. 0,0 UV-I 0,3 C 6,2 C 4,6 km/h (1 Bft)
2014 www.wetterstation-wechselburg.de